This is the latest recevied weather packets stored in our database for station/object AD8BV. If no packets are shown the sender has not sent any weather packets the latest 10 day(s).
| Time | Temp. | Humidity | Pressure | Rain* | Wind** | Luminosity | Snow |
|---|---|---|---|---|---|---|---|
| 1777978635 | 11.67° C | 74% | 1005.1 hPa | 0 mm | - | 10 W/m² | - |
| 1777978331 | 11.67° C | 75% | 1005 hPa | 0 mm | - | 6 W/m² | - |
| 1777978028 | 12.22° C | 77% | 1004.7 hPa | 0 mm | - | 5 W/m² | - |
| 1777977725 | 12.22° C | 80% | 1004.6 hPa | 0 mm | - | 3 W/m² | - |
| 1777977422 | 12.22° C | 85% | 1005.1 hPa | 0 mm | - | 2 W/m² | - |
| 1777977120 | 12.22° C | 86% | 1004.3 hPa | 0 mm | - | 0 W/m² | - |
| 1777976817 | 12.22° C | 91% | 1004.8 hPa | 0 mm | - | 0 W/m² | - |
| 1777976514 | 12.22° C | 93% | 1004.6 hPa | 0 mm | - | 0 W/m² | - |
| 1777976213 | 12.22° C | 93% | 1004.6 hPa | 0 mm | - | 0 W/m² | - |
| 1777975909 | 12.78° C | 93% | 1004.8 hPa | 0 mm | - | 0 W/m² | - |
| 1777975605 | 12.78° C | 93% | 1004.4 hPa | 0 mm | - | 0 W/m² | - |
| 1777975303 | 12.78° C | 93% | 1004.3 hPa | 0 mm | - | 0 W/m² | - |
| 1777974998 | 12.78° C | 93% | 1004.3 hPa | 0 mm | - | 0 W/m² | - |
| 1777974696 | 12.78° C | 92% | 1004.2 hPa | 0 mm | - | 0 W/m² | - |
| 1777974391 | 12.78° C | 92% | 1004.3 hPa | 0 mm | - | 0 W/m² | - |
| 1777974088 | 12.78° C | 91% | 1003.6 hPa | 0 mm | - | 0 W/m² | - |
| 1777973784 | 12.78° C | 91% | 1003.5 hPa | 0 mm | - | 0 W/m² | - |
| 1777973482 | 12.78° C | 90% | 1003.6 hPa | 0 mm | - | 0 W/m² | - |
| 1777973179 | 12.78° C | 90% | 1003.7 hPa | 0 mm | - | 0 W/m² | - |
| 1777972878 | 12.78° C | 90% | 1004.1 hPa | 0 mm | - | 0 W/m² | - |
| 1777972574 | 12.78° C | 89% | 1003.6 hPa | 0 mm | - | 0 W/m² | - |
| 1777972272 | 13.33° C | 89% | 1003.5 hPa | 0 mm | - | 0 W/m² | - |
| 1777971970 | 12.78° C | 88% | 1003.5 hPa | 0 mm | - | 0 W/m² | - |
| 1777971668 | 12.78° C | 89% | 1003.6 hPa | 0 mm | - | 0 W/m² | - |
| 1777971365 | 12.78° C | 90% | 1003.7 hPa | 0 mm | - | 0 W/m² | - |
* Rain latest hour (hover to see other rain measurements)
** Current wind speed in m/s (hover to see current wind gust speed)